{"data":{"norad_id":67723,"intl_designator":"2026-026C","name":"STARLINK-36369","alt_names":[],"object_type":"PAYLOAD","status":"ACTIVE","operator":null,"country":"US","launch_date":"2026-02-11","launch_site_code":"AFWTR","launch_vehicle":null,"mission":null,"orbit_class":"UNKNOWN","rcs_meters":null,"size_class":null,"mass_kg":null,"dimensions":null,"purposes":["comms"],"wikipedia_slug":null,"has_3d_model":false,"image_url":null,"decayed_at":null,"tle_current":{"epoch":"2026-09-19T21:26:40.346592Z","epoch_age_seconds":118888,"freshness":"FRESH","line1":"1 67723U 26026C   26262.89352253  .00017572  00000+0  54531-3 0  9998","line2":"2 67723  97.2859 314.6712 0001132  86.2675 273.8697 15.33447491 33887","mean_motion":15.33447491,"eccentricity":0.0001132,"inclination_deg":97.2859,"raan_deg":314.6712,"arg_perigee_deg":86.2675,"mean_anomaly_deg":273.8697,"bstar":0.00054531,"rev_number":3388,"period_min":93.906052111438,"perigee_km":464.76105926796,"apogee_km":466.31046678151,"semimajor_km":6843.6727630247,"source":"CELESTRAK","updated_at":"2026-09-20T09:00:43.656680Z"}}}